Plovdiv, Bulgaria

9:57 PM EET on December 05, 2019 (GMT +0200)
Plovdiv

Weather History for LBPD - October, 2019

Change the Weather History Date:

Friday, October 25, 2019

  Actual Average (WUND) Record (WUND)
Temperature  
Mean Temperature 58 °F -  
Max Temperature 75 °F - - (-1)
Min Temperature 42 °F - - (-1)
Degree Days  
Heating Degree Days 6    
Growing Degree Days 8 (Base 50)    
Moisture  
Dew Point 39 °F    
Average Humidity 53    
Maximum Humidity 81    
Minimum Humidity 29    
Precipitation  
Precipitation 0.00 in - - ()
Sea Level Pressure  
Sea Level Pressure 30.11 in    
Wind  
Wind Speed 4 mph ()    
Max Wind Speed 8 mph    
Max Gust Speed -    
Visibility 6.2 miles    
Events      
Averages and records for this station are not official NWS values.
T = Trace of Precipitation, MM = Missing Value Source: Averaged Metar Reports

Daily Weather History Graph

Daily Weather History Graph

Search for Another Location

Airport or City:

Astronomy

Oct. 25, 2019 Rise Set
Actual Time 7:44 AM EEST 6:24 PM EEST
Civil Twilight 7:16 AM EEST 6:53 PM EEST
Nautical Twilight 6:43 AM EEST 7:26 PM EEST
Astronomical Twilight 6:10 AM EEST 7:58 PM EEST
Moon 3:58 AM EEST (10/25) 5:20 PM EEST (10/25)
Length of Visible Light 11h 37m
Length of Day
10h 40m
Waning Crescent, 11% of the Moon is Illuminated
Oct 25
Waning Crescent
Oct 28
New
Nov 4
First Quarter
Nov 12
Full
Nov 19
Last Quarter

Hourly Weather History & Observations

Time (EEST) Temp. Windchill Dew Point Humidity Pressure Visibility Wind Dir Wind Speed Gust Speed Precip Events Conditions
12:00 AM 50.0 °F - 39.2 °F 66% 30.12 in 6.2 mi SW 3.5 mph - N/A   Unknown
12:30 AM 51.8 °F - 41.0 °F 67% 30.09 in 6.2 mi SW 3.5 mph - N/A   Unknown
1:30 AM 50.0 °F - 37.4 °F 62% 30.09 in 6.2 mi NNW 2.3 mph - N/A   Unknown
2:00 AM 46.4 °F 43.5 °F 37.4 °F 71% 30.09 in 6.2 mi WNW 5.8 mph - N/A   Unknown
2:30 AM 48.2 °F - 39.2 °F 71% 30.12 in 6.2 mi West 5.8 mph - N/A   Unknown
3:00 AM 46.4 °F 44.3 °F 35.6 °F 66% 30.12 in 6.2 mi WSW 4.6 mph - N/A   Unknown
3:30 AM 51.8 °F - 39.2 °F 62% 30.12 in 6.2 mi Variable 1.2 mph - N/A   Unknown
4:00 AM 48.2 °F - 37.4 °F 66% 30.09 in 6.2 mi WSW 3.5 mph - N/A   Unknown
4:30 AM 42.8 °F 40.1 °F 35.6 °F 76% 30.09 in 6.2 mi West 4.6 mph - N/A   Unknown
5:00 AM 46.4 °F 42.9 °F 37.4 °F 71% 30.12 in 6.2 mi Variable 6.9 mph - N/A   Unknown
5:30 AM 48.2 °F - 37.4 °F 66% 30.12 in 6.2 mi Variable 2.3 mph - N/A   Unknown
6:00 AM 48.2 °F - 39.2 °F 71% 30.12 in 6.2 mi Variable 1.2 mph - N/A   Unknown
6:30 AM 46.4 °F 44.3 °F 37.4 °F 71% 30.12 in 6.2 mi NW 4.6 mph - N/A   Unknown
7:00 AM 42.8 °F 41.1 °F 37.4 °F 81% 30.12 in 6.2 mi West 3.5 mph - N/A   Unknown
7:30 AM 44.6 °F - 37.4 °F 76% 30.12 in 6.2 mi NNW 2.3 mph - N/A   Unknown
8:00 AM 44.6 °F 43.1 °F 37.4 °F 76% 30.12 in 6.2 mi WNW 3.5 mph - N/A   Unknown
8:30 AM 44.6 °F 43.1 °F 37.4 °F 76% 30.12 in 6.2 mi West 3.5 mph - N/A   Unknown
9:00 AM 46.4 °F - 39.2 °F 76% 30.12 in 6.2 mi Variable 2.3 mph - N/A   Unknown
9:30 AM 50.0 °F - 41.0 °F 71% 30.15 in 6.2 mi WNW 4.6 mph - N/A   Unknown
10:00 AM 55.4 °F - 39.2 °F 54% 30.15 in 6.2 mi West 4.6 mph - N/A   Unknown
10:30 AM 57.2 °F - 39.2 °F 51% 30.12 in 6.2 mi NW 4.6 mph - N/A   Unknown
11:00 AM 59.0 °F - 39.2 °F 48% 30.12 in 6.2 mi WNW 4.6 mph - N/A   Unknown
11:30 AM 62.6 °F - 39.2 °F 42% 30.12 in 6.2 mi West 3.5 mph - N/A   Unknown
12:00 PM 64.4 °F - 39.2 °F 40% 30.12 in 6.2 mi Variable 2.3 mph - N/A   Unknown
12:30 PM 66.2 °F - 41.0 °F 40% 30.12 in 6.2 mi Variable 2.3 mph - N/A   Unknown
1:00 PM 69.8 °F - 42.8 °F 38% 30.12 in 6.2 mi WSW 3.5 mph - N/A   Unknown
1:30 PM 69.8 °F - 42.8 °F 38% 30.09 in 6.2 mi Variable 3.5 mph - N/A   Unknown
2:00 PM 71.6 °F - 42.8 °F 35% 30.09 in 6.2 mi Variable 2.3 mph - N/A   Unknown
2:30 PM 73.4 °F - 42.8 °F 33% 30.09 in 6.2 mi Variable 3.5 mph - N/A   Unknown
3:00 PM 73.4 °F - 44.6 °F 36% 30.09 in 6.2 mi Variable 2.3 mph - N/A   Unknown
3:30 PM 73.4 °F - 42.8 °F 33% 30.09 in 6.2 mi East 3.5 mph - N/A   Unknown
4:00 PM 75.2 °F - 42.8 °F 31% 30.06 in 6.2 mi South 4.6 mph - N/A   Unknown
4:30 PM 75.2 °F - 41.0 °F 29% 30.06 in 6.2 mi SE 3.5 mph - N/A   Unknown
5:00 PM 75.2 °F - 41.0 °F 29% 30.06 in 6.2 mi ESE 3.5 mph - N/A   Unknown
5:30 PM 73.4 °F - 41.0 °F 31% 30.06 in 6.2 mi East 4.6 mph - N/A   Unknown
6:00 PM 71.6 °F - 41.0 °F 33% 30.06 in 6.2 mi East 4.6 mph - N/A   Unknown
6:30 PM 64.4 °F - 42.8 °F 45% 30.09 in 6.2 mi SE 3.5 mph - N/A   Unknown
7:30 PM 62.6 °F - 42.8 °F 48% 30.12 in 6.2 mi SSE 5.8 mph - N/A   Unknown
8:00 PM 60.8 °F - 39.2 °F 45% 30.12 in 6.2 mi South 6.9 mph - N/A   Unknown
8:30 PM 62.6 °F - 39.2 °F 42% 30.12 in 6.2 mi South 8.1 mph - N/A   Unknown
9:00 PM 62.6 °F - 37.4 °F 39% 30.12 in 6.2 mi South 6.9 mph - N/A   Unknown
9:30 PM 64.4 °F - 35.6 °F 34% 30.15 in 6.2 mi South 5.8 mph - N/A   Unknown
10:00 PM 62.6 °F - 35.6 °F 37% 30.15 in 6.2 mi Variable 2.3 mph - N/A   Unknown
10:30 PM 53.6 °F - 35.6 °F 51% 30.18 in 6.2 mi Variable 2.3 mph - N/A   Unknown
11:00 PM 50.0 °F - 39.2 °F 66% 30.18 in 6.2 mi SW 4.6 mph - N/A   Unknown
11:30 PM 50.0 °F - 39.2 °F 66% 30.18 in 6.2 mi WSW 3.5 mph - N/A   Unknown